User: anonymous   Login
Location: Salamanca
(40.9670°N, 5.6500°W)
Time: 18:09:22
(UTC+02:00)
Language:

Cosmos 1633 Rocket - Orbit

View from above orbital plane
View from above orbital plane
View from above satellite
View from above satellite

Ground track
Ground track

The orbit data is extracted from the following two-line orbital elements,

1 15593U 85020B   15244.29884861  .00000215  00000-0  22830-4 0  9997
2 15593  82.5404 155.4182 0012888  47.8799  73.3776 14.84093176647233
Epoch (UTC): 01 September 2015 07:10:20
Eccentricity: 0.0012888
inclination: 82.5404°
perigee height: 607 km
apogee height: 625 km
right ascension of ascending node: 155.4182°
argument of perigee: 47.8799°
revolutions per day: 14.84093176
mean anomaly at epoch: 73.3776°
orbit number at epoch: 64723

The dashed part of the orbit path shows where the satellite is in the earth's shadow,  

DLR